Regional Weather Roundup
Issued by NWS Sterling, VA

Home | Current Version | Previous Version | Graphics & Text | Print | Product List | Glossary On
Versions: 1 2 3 4 5 6 7 8 9 10 11 12 13 14 15 16 17 18 19 20 21 22 23 24 25 26 27 28 29 30 31 32 33 34 35 36 37 38 39 40 41 42 43 44 45 46 47 48 49 50
113
ASUS41 KLWX 050310
RWRLWX

REGIONAL WEATHER ROUNDUP
NATIONAL WEATHER SERVICE BALTIMORE MD/WASHINGTON DC
1000 PM EST THU FEB 04 2016

Note: "FAIR" indicates few or no clouds below 12,000 feet
with no significant weather and/or obstructions to visibility.
 TC=TEMPERATURE CELSIUS

 * =Non NWS site. Station does not report precipitation (e.g. rain,
    snow, etc.), thunder, or fog.

DCZ001-MDZ009-015-VAZ040>042-051-053>054-050400-
WASHINGTON METRO

CITY           SKY/WX    TMP DP  RH WIND       PRES   REMARKS
WASHINGTON NAT CLOUDY    44  30  57 NW10      30.13R
DULLES         CLOUDY    41  26  55 NW14      30.13R
ANDREWS AFB    CLOUDY    43  29  56 NW13      30.10S
FT BELVOIR     CLOUDY    44  27  51 NW9       30.13R
QUANTICO       CLOUDY    46  27  47 N13G25    30.14R
COLLEGE PARK*  CLOUDY    45  30  57 NW8       30.12S
LEESBURG*      CLOUDY    41  30  65 N14       30.14S
GAITHERSBURG*  CLOUDY    39  25  56 NW6       30.16R

$$

MDZ006>007-011-014-050400-
BALTIMORE METRO

CITY           SKY/WX    TMP DP  RH WIND       PRES   REMARKS
BWI AIRPORT    CLOUDY    43  27  53 NW9       30.10F
MD SCIENCE CTR   N/A     45  26  47 MISG      30.11R
MARTIN STATE   CLOUDY    45  32  61 W9        30.12S
ANNAPOLIS      CLOUDY    44  30  57 NW10      30.10S
FORT MEADE*    CLOUDY    41  30  65 N6        30.14R

$$

MDZ012-015-019>023-050400-
MARYLAND EASTERN SHORE

CITY           SKY/WX    TMP DP  RH WIND       PRES   REMARKS
OCEAN CITY     LGT RAIN  41  40  96 N12       30.06R FOG
SALISBURY      LGT RAIN  41  39  93 NW8       30.09R
BAY BRIDGE AP*   N/A     41  32  70 CALM      30.10S
CAMBRIDGE*     CLOUDY    41  36  81 NW6       30.09R
EASTON*        CLOUDY    43  33  67 N7        30.13R

$$

MDZ017>025-050400-
SOUTHERN MARYLAND

CITY           SKY/WX    TMP DP  RH WIND       PRES   REMARKS
PATUXENT RIVER LGT RAIN  43  35  73 N8        30.09R
ST INIGOES     CLOUDY    43  38  82 CALM      30.08F
LEONARDTOWN*   CLOUDY    41  34  75 NW3       30.10F

$$

MDZ003>005-050400-
NORTH CENTRAL MARYLAND

CITY           SKY/WX    TMP DP  RH WIND       PRES   REMARKS
FREDERICK*     CLOUDY    41  30  65 N6        30.17R
HAGERSTOWN APT CLOUDY    38  26  62 NW7       30.14F
WESTMINSTER*   CLOUDY    39  34  81 NW7       30.11R

$$

MDZ501>502-050400-
WESTERN MARYLAND

CITY           SKY/WX    TMP DP  RH WIND       PRES   REMARKS
OAKLAND*       CLOUDY    27  21  80 NW7       30.08F
CUMBERLAND*    CLOUDY    37  23  56 NW7       30.20S

$$

VAZ025>031-050400-
SHENANDOAH VALLEY

CITY           SKY/WX    TMP DP  RH WIND       PRES   REMARKS
WINCHESTER*    CLOUDY    39  27  60 N6        30.14S
FRONT ROYAL*   CLOUDY    37  28  70 CALM      30.15R
LURAY*         CLOUDY    37  28  70 N3        30.13R
NEW MARKET*    CLOUDY    38  27  64 N3        30.14R
STAUNTON*      CLOUDY    42  30  63 NE12      30.12F
WAYNESBORO*    CLOUDY    38  26  61 N9        30.10S

$$

WVZ021-048>050-054>055-050400-
EASTERN WEST VIRGINIA PANHANDLE

CITY           SKY/WX    TMP DP  RH WIND       PRES   REMARKS
MARTINSBURG    CLOUDY    39  24  55 NW10      30.15S
PETERSBURG*    CLOUDY    39  24  55 CALM      30.17R

$$

VAZ036>039-050-050400-
CENTRAL FOOTHILLS

CITY           SKY/WX    TMP DP  RH WIND       PRES   REMARKS
CHARLOTTESVILL CLOUDY    43  30  60 N3        30.10R
CULPEPER*      CLOUDY    41  28  58 N9        30.14S
ORANGE*        CLOUDY    43  30  61 N8        30.13F
GORDONSVILLE*  CLOUDY    42  29  60 N6        30.11S
WARRENTON*     CLOUDY    43  31  63 N10G16    30.12S

$$

VAZ055>057-050400-
NORTH AND CENTRAL PIEDMONT

CITY           SKY/WX    TMP DP  RH WIND       PRES   REMARKS
FREDERICKSBRG* CLOUDY    44  30  58 N14       30.11S
STAFFORD*      CLOUDY    43  28  55 N10       30.17R

$$

NCZ024-NYZ072-PAZ021-071-VAZ022-071-050400-
OTHER REGIONAL OBSERVATIONS

CITY           SKY/WX    TMP DP  RH WIND       PRES   REMARKS
NEW YORK CITY  CLOUDY    46  29  51 NE9       30.10R
PHILADELPHIA   LGT RAIN  45  33  63 N7        30.07F
PITTSBURGH     FLURRIES  31  21  66 W9        30.20R WCI  23
ROANOKE        CLOUDY    40  25  55 NW8       30.12S
RICHMOND       CLOUDY    42  41  96 NE3       30.08F
RALEIGH        LGT RAIN  45  43  93 NE10G16   30.03S FOG

$$

ANZ530>537-050400-
MARINE OBSERVATIONS

STATION/POSITION TIME  TEMP    WIND        PRES
                       AIR SEA DIR/SP/G
                 (UTC) (F)     (DEG/KT/KT) (MB)
THOMAS PT LIGHT  NOT AVBL
BALT KEY BRIDGE  0200   44     320/ 12/ 14 1019.5R
COVE POINT       0200   42     360/  9/ 12 1019.3S
LEWISETTA        0200   42 44  360/  2/  4 1019.0R
SOLOMONS ISLAND  0200   44 42  350/  5/  7   N/A

$$





USA.gov is the U.S. government's official web portal to all federal, state and local government web resources and services.